Retour au catalogue

STARLINK-35557

ActifCommunicationsVLEO
NORAD 66237·PAYLOAD·🇺🇸 United States

Lancé Oct 29, 2025 depuis Cape Canaveral Space Force Station

Loading…

Prochains Passages (prochaines 24 heures)

TLE

FraisSource: CelesTrak SupGP

Époque: Sep 14, 2026, 23:02 UTC

1 66237C 25245D   26257.96020833 -.00035919  00000+0 -10614-2 0  2574
2 66237  53.1572 119.9471 0001261  89.0696 229.6563 15.34403022    17

Suivez STARLINK-35557 en temps réel avec AllMySat

Download on the App Store